Temperature
20 21 21 21 21 20 20 20 20 20 20 20 20 20 20 20 20 19 19 19 19 19 19 19 19 19 19 19 19 19 19 19 19 19 19 19 19 19 18 18 18 18 18
21 21 20 21 20 20 20 20 20 20 20 20 20 20 20 20 20 20 20 19 19 19 19 19 19 19 19 19 19 19 19 19 19 19 19 18 18 18 18 18 18 18 18
21 21 21 21 20 20 20 20 20 20 20 20 20 20 20 20 20 20 20 19 19 19 19 19 19 19 19 19 19 19 19 19 19 19 19 18 18 18 18 18 18 18 18
21 21 21 20 20 20 20 20 20 20 20 20 20 20 20 20 20 19 19 19 19 19 19 19 19 19 19 19 19 19 19 19 19 19 18 18 18 18 18 18 18 18 18
21 21 21 21 20 20 20 20 20 20 20 20 20 20 20 20 20 19 19 19 19 19 19 19 19 19 19 19 19 19 19 19 19 18 18 18 18 18 18 18 18 18 18
21 21 21 21 21 20 20 20 20 20 20 20 20 20 20 20 20 19 19 19 19 19 19 19 19 19 19 19 19 19 19 19 18 18 18 18 18 18 18 18 18 18 18
21 21 21 21 21 21 20 20 20 20 20 20 20 20 20 19 19 19 19 19 19 19 19 19 19 19 19 19 19 19 19 18 18 18 18 18 18 18 18 18 18 18 18
21 21 21 21 21 20 20 20 20 20 20 20 20 20 20 19 19 19 19 19 19 19 19 19 19 19 19 19 19 19 19 19 18 18 18 18 18 18 18 18 18 18 18
21 21 21 21 20 20 20 20 20 20 20 20 20 20 19 19 19 19 19 19 19 19 19 19 19 19 19 19 19 19 19 19 18 18 18 18 18 18 18 18 18 18 18
21 21 21 21 20 20 20 20 20 20 20 20 20 19 19 19 19 19 19 19 19 19 19 19 19 19 19 19 18 18 18 18 18 19 18 18 18 18 18 18 18 18 18
21 21 21 21 20 20 20 20 20 20 20 19 19 19 19 19 19 19 19 19 19 19 19 19 19 19 19 19 19 19 18 19 19 19 18 18 18 18 18 18 18 18 18
21 20 20 21 20 20 20 20 20 20 20 19 19 19 19 19 19 19 19 19 19 19 19 19 19 19 19 19 19 19 19 19 19 19 18 18 18 18 18 18 18 18 18
21 21 20 20 20 20 20 20 20 20 20 19 19 19 19 19 19 19 19 19 19 19 18 19 19 19 19 19 19 19 19 18 18 18 18 18 18 18 18 18 18 18 18
21 21 21 20 20 20 20 20 20 20 19 19 19 19 19 19 19 19 19 18 18 18 18 18 18 19 19 19 19 19 18 18 18 18 18 18 18 18 18 18 18 18 18
21 21 21 20 20 20 20 20 20 20 20 19 19 19 19 19 19 19 18 18 18 18 18 18 18 19 19 19 18 18 18 18 18 18 18 18 18 18 18 18 18 18 18
21 21 21 21 20 20 20 20 20 20 19 19 19 19 19 19 19 19 19 18 18 18 18 18 18 19 18 18 18 18 18 18 18 18 18 18 18 18 18 18 18 18 18
21 21 21 20 20 20 20 20 20 20 19 19 19 19 19 19 19 19 19 18 18 18 18 18 18 18 18 18 18 18 18 18 18 18 18 18 18 18 18 18 18 18 18
21 21 21 20 20 20 20 20 19 19 19 19 19 19 19 19 19 18 18 18 18 18 18 18 18 18 18 18 18 18 18 18 18 18 18 18 18 18 18 18 18 18 18
22 21 21 21 20 20 20 20 19 19 19 19 19 19 19 19 18 18 18 18 18 18 18 18 18 18 18 18 18 18 18 18 18 18 18 18 18 18 18 18 18 18 18
22 21 21 21 20 20 20 20 19 19 19 19 19 19 18 18 18 18 18 18 18 18 18 18 18 18 18 18 18 18 18 18 18 18 18 18 18 18 18 18 18 17 17
22 21 21 21 20 20 20 20 19 19 19 19 19 18 18 18 18 18 18 18 18 18 18 18 18 18 18 18 18 18 18 18 18 18 18 18 18 18 18 17 17 17 17
22 21 21 21 20 20 20 20 19 19 19 19 19 18 18 18 18 18 18 18 18 18 18 18 18 18 18 18 18 17 17 17 17 17 17 18 17 17 17 17 17 17 17
22 21 21 21 20 20 20 20 19 19 19 19 19 18 18 18 18 18 18 18 18 18 18 17 18 18 17 17 17 17 17 17 17 17 17 17 17 17 17 17 17 17 17
22 22 21 21 20 20 20 20 19 19 19 19 18 18 18 18 18 18 18 18 18 18 18 18 17 17 18 17 17 17 17 17 17 17 17 17 17 17 17 17 17 17 17
22 22 21 21 20 20 20 19 19 19 19 18 18 18 18 18 18 18 18 17 17 17 17 17 17 17 17 17 17 17 17 17 17 17 17 17 17 17 17 17 17 17 17
22 21 21 21 20 20 20 19 19 19 19 18 18 18 18 18 18 18 17 17 17 17 17 17 17 17 17 17 17 17 17 17 17 17 17 17 17 17 17 17 17 17 17
Wind_Speed
4 5 10 10 11 10 10 10 9 9 9 9 8 8 9 10 10 10 11 11 11 11 12 12 12 11 11 12 13 13 13 13 12 12 13 13 13 13 12 12 11 9 11
7 8 10 10 10 10 9 9 9 10 10 9 9 9 9 10 10 10 10 10 11 11 11 11 11 11 11 12 13 13 12 12 12 12 12 12 12 12 12 12 11 9 12
8 8 10 11 10 10 10 10 10 10 9 9 9 9 10 10 10 10 10 10 10 10 10 10 11 11 11 11 12 12 12 12 11 11 10 8 9 11 11 11 12 12 12
8 7 9 11 10 10 10 10 10 10 9 9 9 9 9 9 9 9 9 9 9 9 10 10 10 10 10 10 11 11 12 11 11 11 8 8 8 10 11 11 12 12 12
7 7 9 11 10 10 10 9 9 9 9 9 9 9 8 8 9 9 9 9 9 9 9 9 9 10 9 10 10 10 10 11 11 9 7 7 8 9 10 11 12 12 12
6 6 9 10 9 9 9 9 9 9 9 9 8 8 8 8 8 8 8 8 8 8 8 8 8 8 9 9 9 9 10 10 9 7 7 7 8 10 11 11 11 12 13
6 5 7 9 8 8 9 10 10 9 8 8 8 8 7 7 7 7 8 8 8 8 8 7 7 7 8 9 9 9 9 9 7 6 6 7 9 11 11 11 11 11 12
7 5 6 8 8 8 9 10 10 9 9 8 8 8 7 7 6 6 7 7 8 7 7 6 7 7 8 9 10 9 8 8 7 7 6 7 10 12 12 12 11 11 10
6 5 4 4 6 8 9 10 10 9 8 8 8 7 6 6 5 5 5 6 6 7 6 6 6 7 7 9 9 8 8 8 6 5 6 7 10 12 13 13 12 12 11
5 4 3 3 4 5 7 9 9 9 8 7 7 6 5 5 4 4 4 5 5 5 5 5 5 6 7 8 8 7 7 6 5 5 5 7 11 12 13 13 13 12 12
5 3 3 3 4 5 6 7 8 8 7 6 5 5 4 2 3 4 4 4 4 4 3 3 4 4 5 6 7 7 6 5 5 5 5 9 11 12 13 13 13 13 12
5 3 3 4 4 4 5 5 4 4 4 3 3 3 2 1 2 3 4 4 3 2 2 2 2 3 4 4 5 5 5 6 5 5 6 10 11 12 13 13 14 14 13
5 5 3 4 4 4 3 4 3 3 3 3 3 3 3 2 2 2 1 1 0 0 1 1 1 2 3 4 4 4 5 5 4 5 7 10 11 12 13 13 14 14 13
7 6 5 5 4 4 4 3 3 3 3 3 3 3 3 2 3 2 1 1 1 1 1 0 1 2 3 5 6 5 5 4 5 5 6 10 11 12 13 13 13 13 12
7 6 5 5 5 4 4 3 4 3 3 3 3 3 4 3 3 3 2 2 2 2 2 1 2 3 3 4 5 5 5 5 5 5 6 10 11 11 11 12 12 12 12
6 5 5 5 5 5 4 4 3 3 3 4 3 4 5 4 3 3 3 2 2 2 2 2 3 3 2 3 4 4 5 5 5 5 5 7 10 11 11 11 11 11 11
6 6 5 5 5 5 5 4 4 3 4 4 3 4 5 5 4 3 3 3 2 3 3 3 4 4 3 4 4 4 4 4 5 5 5 5 6 9 10 10 10 10 11
7 6 5 6 5 5 4 4 3 4 4 3 3 4 5 5 5 4 3 2 2 3 3 3 3 4 4 4 3 3 3 3 4 5 5 4 5 5 7 9 8 9 10
7 7 6 6 5 4 4 4 3 4 4 3 4 4 4 5 5 4 3 2 3 3 3 4 4 4 4 3 3 3 3 3 3 4 4 4 4 4 5 7 8 8 9
7 7 7 6 5 4 4 4 4 4 3 3 3 3 5 4 5 4 3 3 3 4 4 4 4 4 3 3 3 4 3 2 2 3 3 3 4 5 5 5 6 6 7
7 7 6 6 5 4 3 3 3 3 3 3 3 4 5 4 4 4 3 3 4 4 3 4 3 4 3 3 4 4 4 3 3 2 2 2 2 4 4 4 5 5 5
8 7 6 6 5 4 3 3 3 3 2 2 2 4 5 5 5 4 4 3 3 4 4 4 4 3 2 2 2 3 3 3 3 2 2 3 2 2 3 4 4 4 4
8 8 7 6 5 4 4 4 4 4 3 3 3 3 3 5 5 4 4 4 4 3 3 3 3 3 2 1 2 3 3 1 1 2 2 2 1 2 2 3 4 4 5
8 7 7 6 5 5 5 5 6 5 3 2 1 2 3 4 4 5 4 4 4 3 3 2 2 2 2 1 1 2 2 3 2 0 2 1 0 1 2 3 3 5 6
9 8 7 6 5 5 5 6 6 4 3 2 3 3 3 2 3 4 4 3 3 3 2 2 2 2 2 1 1 1 2 2 2 2 0 1 1 1 0 1 2 3 4
8 8 7 6 5 5 5 5 6 5 4 4 3 3 2 1 2 2 3 3 2 2 2 1 1 2 1 1 1 1 2 2 1 2 1 1 0 1 1 0 1 1 3
Wind_Direction
172 163 147 140 136 133 132 133 132 132 131 129 128 129 132 134 137 138 140 140 143 147 152 153 153 152 151 152 150 150 151 152 153 155 157 158 162 161 160 157 156 150 149
160 161 150 140 136 136 133 133 132 130 128 128 127 129 131 133 136 140 143 144 147 150 152 155 156 155 155 154 153 152 154 155 157 157 158 162 166 167 166 164 164 157 157
143 153 148 144 141 137 135 133 130 132 132 130 127 129 131 134 138 141 145 148 151 155 158 157 156 155 156 157 157 158 160 161 161 160 160 160 169 172 171 171 170 166 164
142 148 149 146 141 136 135 137 134 136 138 135 133 134 135 137 139 142 146 150 154 157 159 158 159 160 160 161 162 163 165 167 167 166 162 165 171 176 175 173 173 172 170
134 146 150 143 141 141 142 143 141 139 142 143 141 140 140 142 143 145 149 152 154 157 160 160 163 166 169 171 170 169 170 174 175 172 165 169 173 179 180 179 178 176 175
130 141 143 140 143 147 149 147 143 142 141 142 142 143 145 146 148 151 152 153 155 158 162 166 169 173 177 177 175 174 176 176 174 165 164 171 175 180 182 180 178 176 177
130 136 141 136 139 143 148 150 145 141 137 135 136 137 142 144 145 150 152 156 159 163 167 171 176 179 181 179 177 179 180 175 168 161 165 172 176 179 179 177 176 174 177
135 137 142 138 132 135 141 144 143 139 135 131 127 129 133 135 140 150 159 164 166 168 173 177 183 184 183 181 178 177 175 174 170 168 168 174 177 178 177 174 172 171 171
128 129 138 145 134 129 132 136 137 135 135 128 124 125 132 139 149 159 168 171 174 178 182 185 188 190 185 182 178 174 174 174 161 163 174 177 179 178 179 176 173 173 174
112 116 123 126 120 129 138 137 135 132 130 127 128 129 135 147 163 170 171 169 174 187 192 193 193 188 183 181 180 176 175 171 150 154 173 181 183 182 180 177 176 175 173
102 100 109 114 122 129 136 135 139 136 131 128 128 119 123 154 187 184 175 176 179 182 187 192 195 189 191 189 184 183 184 157 150 160 172 181 183 184 183 178 178 176 175
111 111 107 113 118 121 132 130 136 134 134 121 114 110 118 121 153 152 170 175 177 179 194 210 216 204 193 172 175 178 159 156 160 163 171 177 179 182 180 176 177 176 177
117 112 106 111 108 108 100 110 116 123 118 109 101 109 112 94 97 111 142 160 140 133 319 333 9 129 146 147 150 148 153 159 161 163 172 178 181 180 178 174 174 175 178
103 100 100 103 98 95 100 99 105 104 101 98 103 106 103 88 81 94 111 109 85 75 69 25 102 106 129 142 137 140 144 152 153 158 164 171 175 178 177 176 175 173 175
106 103 104 100 96 96 94 90 93 95 106 110 109 106 107 101 91 85 86 93 84 89 77 52 81 92 108 129 137 142 143 142 148 152 157 167 167 168 172 177 176 174 175
120 116 110 98 97 96 93 89 89 93 98 101 98 105 110 113 103 92 77 67 66 77 88 80 81 92 110 127 132 135 136 135 132 135 146 162 166 166 167 171 174 178 182
133 126 118 114 97 94 92 91 87 87 93 90 92 102 104 108 101 96 85 68 65 79 71 70 72 80 87 109 117 118 123 126 134 133 145 151 161 166 167 169 173 180 183
131 127 122 118 100 95 94 92 84 79 82 82 92 97 99 105 103 94 86 67 64 68 62 64 70 73 73 92 106 114 119 125 132 139 144 150 155 162 165 167 172 179 180
138 133 123 114 112 109 101 94 85 80 79 78 83 82 90 95 96 95 81 64 73 66 57 64 65 79 86 88 103 105 106 117 133 135 141 148 157 162 167 169 172 175 179
134 133 129 117 114 112 100 89 78 74 69 65 72 79 87 93 94 92 83 63 69 71 59 58 63 64 81 86 97 86 85 102 114 127 143 142 153 163 162 164 164 168 172
135 131 128 120 119 114 107 103 98 93 83 69 68 73 83 85 87 83 78 63 64 70 65 66 71 68 60 64 77 63 46 53 83 100 109 127 149 160 153 156 162 161 169
145 139 130 129 128 124 129 128 122 118 104 95 61 55 68 76 80 84 73 67 65 72 59 57 72 69 65 62 90 86 55 26 28 68 95 118 128 142 154 162 164 164 169
151 149 145 137 131 126 118 106 97 79 62 54 52 55 57 73 73 74 75 79 73 76 72 58 66 86 86 27 68 112 116 153 351 11 52 90 117 133 150 168 167 172 177
155 146 136 134 127 122 118 118 121 120 114 121 111 86 67 65 71 79 80 78 75 75 81 76 72 78 105 88 16 54 125 148 138 57 354 6 29 136 170 174 175 180 183
153 145 138 131 125 123 124 130 126 122 125 113 97 90 77 59 65 75 82 82 77 73 70 59 56 63 90 118 105 77 70 58 87 133 182 341 353 315 206 185 189 180 179
148 142 140 134 129 126 126 129 131 132 127 117 113 113 100 74 62 67 89 88 92 85 75 66 67 73 76 81 79 104 123 130 146 137 164 198 266 303 322 227 186 177 172
Height
1488 1488 1489 1489 1489 1489 1489 1489 1489 1490 1490 1490 1491 1491 1492 1493 1495 1496 1498 1499 1500 1502 1503 1504 1504 1506 1507 1508 1510 1512 1514 1516 1518 1520 1521 1523 1524 1525 1526 1527 1528 1530 1531
1485 1487 1489 1489 1489 1489 1489 1489 1489 1489 1490 1490 1491 1491 1492 1493 1495 1496 1498 1499 1500 1502 1503 1504 1505 1506 1507 1509 1510 1512 1514 1516 1518 1520 1521 1522 1524 1525 1526 1527 1528 1529 1531
1487 1488 1489 1489 1488 1489 1488 1488 1489 1489 1490 1490 1491 1491 1492 1494 1495 1496 1498 1499 1500 1501 1503 1504 1505 1506 1508 1509 1511 1512 1514 1516 1517 1519 1521 1522 1524 1525 1526 1527 1528 1529 1530
1489 1489 1489 1489 1489 1489 1488 1489 1489 1490 1490 1491 1491 1492 1493 1494 1495 1497 1498 1499 1500 1501 1503 1504 1505 1506 1507 1509 1510 1512 1514 1516 1517 1519 1520 1522 1523 1525 1526 1527 1528 1528 1530
1490 1490 1489 1489 1488 1488 1488 1489 1489 1490 1491 1491 1492 1492 1493 1495 1496 1497 1498 1499 1500 1501 1502 1503 1504 1506 1507 1509 1510 1511 1513 1515 1516 1518 1519 1521 1522 1524 1525 1526 1527 1527 1528
1491 1491 1490 1488 1487 1486 1487 1488 1489 1490 1491 1491 1492 1493 1494 1495 1496 1497 1498 1499 1500 1501 1502 1503 1504 1505 1506 1507 1509 1511 1512 1514 1515 1517 1519 1520 1521 1523 1524 1525 1526 1526 1527
1492 1491 1490 1489 1486 1484 1484 1487 1489 1490 1491 1491 1492 1493 1494 1495 1496 1497 1498 1499 1500 1501 1502 1503 1503 1504 1505 1507 1508 1509 1511 1513 1515 1516 1518 1519 1520 1522 1523 1524 1525 1525 1526
1493 1492 1491 1489 1487 1484 1485 1487 1490 1491 1492 1492 1493 1494 1495 1496 1497 1497 1498 1499 1500 1500 1501 1502 1503 1503 1504 1506 1507 1508 1510 1511 1513 1515 1516 1518 1519 1521 1522 1523 1524 1525 1526
1495 1494 1493 1491 1489 1488 1488 1490 1491 1493 1493 1494 1494 1495 1495 1496 1496 1497 1497 1498 1499 1500 1500 1501 1502 1503 1504 1505 1506 1507 1509 1510 1512 1513 1515 1516 1518 1520 1521 1522 1523 1524 1526
1496 1495 1494 1493 1491 1491 1491 1492 1493 1494 1495 1495 1496 1496 1496 1496 1496 1496 1497 1498 1498 1499 1500 1500 1501 1501 1502 1503 1505 1506 1508 1509 1511 1512 1513 1515 1517 1518 1520 1521 1523 1524 1525
1498 1497 1496 1495 1494 1494 1494 1495 1495 1496 1497 1497 1497 1497 1496 1495 1494 1495 1496 1497 1498 1499 1499 1499 1499 1499 1500 1501 1503 1504 1506 1508 1510 1510 1512 1513 1515 1517 1518 1520 1522 1523 1525
1499 1499 1498 1497 1496 1496 1496 1497 1497 1498 1498 1498 1498 1498 1496 1494 1493 1494 1495 1497 1498 1498 1498 1497 1497 1497 1498 1499 1500 1503 1505 1507 1508 1509 1510 1512 1513 1515 1517 1519 1520 1522 1524
1501 1500 1500 1499 1499 1498 1499 1499 1499 1500 1500 1500 1499 1499 1497 1495 1494 1494 1495 1496 1497 1497 1497 1496 1496 1496 1496 1497 1499 1501 1503 1505 1506 1508 1509 1511 1512 1514 1516 1518 1519 1521 1523
1502 1501 1501 1501 1501 1501 1501 1501 1501 1501 1502 1501 1501 1500 1499 1498 1497 1496 1497 1497 1497 1497 1496 1495 1494 1494 1495 1496 1498 1500 1502 1504 1505 1507 1509 1510 1512 1514 1516 1517 1519 1520 1522
1503 1503 1503 1503 1503 1503 1503 1503 1503 1503 1503 1503 1503 1502 1501 1500 1500 1499 1499 1498 1498 1497 1495 1494 1493 1493 1494 1495 1497 1499 1501 1503 1504 1506 1508 1510 1512 1514 1515 1517 1518 1520 1521
1505 1504 1504 1505 1504 1505 1505 1505 1505 1505 1505 1505 1504 1504 1503 1502 1502 1501 1501 1500 1499 1498 1496 1494 1493 1493 1493 1494 1497 1499 1501 1503 1504 1506 1508 1510 1512 1514 1515 1517 1518 1519 1521
1506 1506 1506 1506 1506 1506 1506 1506 1506 1507 1507 1506 1506 1506 1505 1504 1504 1503 1503 1502 1501 1500 1499 1497 1495 1495 1494 1495 1497 1500 1501 1503 1505 1506 1508 1510 1512 1514 1515 1517 1518 1519 1520
1506 1507 1507 1507 1508 1508 1508 1508 1508 1508 1508 1508 1508 1507 1507 1506 1506 1505 1504 1504 1503 1502 1501 1499 1498 1497 1497 1497 1499 1501 1503 1504 1506 1508 1509 1511 1513 1514 1516 1517 1518 1518 1519
1507 1508 1508 1509 1509 1509 1509 1509 1509 1510 1509 1509 1509 1509 1508 1508 1507 1507 1506 1505 1504 1503 1502 1501 1500 1500 1500 1500 1501 1503 1504 1506 1507 1509 1510 1512 1513 1514 1516 1517 1518 1518 1519
1508 1509 1509 1510 1510 1511 1511 1511 1511 1511 1511 1511 1511 1510 1510 1509 1508 1508 1507 1507 1506 1505 1504 1503 1503 1502 1502 1502 1503 1504 1506 1507 1508 1509 1511 1512 1514 1515 1516 1517 1517 1518 1518
1508 1509 1510 1510 1511 1511 1511 1511 1511 1511 1512 1512 1512 1512 1511 1511 1510 1509 1509 1508 1508 1507 1506 1505 1505 1504 1504 1504 1504 1506 1507 1509 1509 1510 1511 1513 1514 1515 1516 1516 1517 1517 1518
1508 1509 1510 1511 1511 1512 1512 1512 1512 1513 1513 1513 1513 1513 1512 1511 1511 1510 1510 1509 1509 1508 1507 1507 1506 1506 1506 1506 1506 1506 1508 1511 1510 1511 1512 1513 1514 1515 1516 1516 1517 1517 1517
1508 1509 1510 1511 1511 1512 1513 1513 1513 1513 1513 1513 1513 1513 1513 1512 1512 1511 1511 1510 1510 1509 1509 1508 1508 1508 1508 1508 1508 1509 1509 1510 1511 1512 1513 1514 1514 1515 1515 1516 1516 1516 1517
1508 1509 1510 1511 1512 1512 1513 1513 1513 1513 1513 1513 1514 1514 1513 1513 1513 1512 1512 1511 1511 1510 1510 1510 1509 1509 1509 1509 1510 1510 1511 1511 1511 1513 1514 1514 1514 1515 1515 1515 1516 1516 1516
1507 1509 1510 1511 1512 1512 1513 1513 1513 1513 1514 1514 1514 1514 1514 1514 1513 1513 1513 1512 1512 1511 1511 1510 1510 1510 1510 1510 1510 1511 1511 1512 1512 1512 1513 1514 1514 1515 1515 1515 1515 1516 1515
1507 1508 1509 1510 1511 1512 1512 1513 1513 1513 1514 1514 1514 1514 1514 1514 1514 1513 1513 1512 1512 1512 1511 1511 1511 1511 1510 1510 1510 1511 1511 1511 1511 1511 1512 1512 1513 1514 1514 1514 1514 1515 1515